Location: Chanteloup
(48.8560°N, 2.7390°E)
Time: 00:33:40
(UTC+00:00)

Cosmos 2322 Rocket - Pass Details

Date: 31 May 2022
Orbit: 833 x 850 km, 71.0° (Epoch: 03 July)

Event Time Altitude Azimuth Distance (km) Brightness Sun altitude
Rises 22:43:19 0° 242° (WSW) 3,373 5.2 -17.7°
Reaches altitude 10° 22:46:04 10° 254° (WSW) 2,442 4.6 -17.8°
Maximum altitude 22:50:53 29° 313° (NW) 1,493 4.1 -18.0°
Drops below altitude 10° 22:55:45 10° 13° (NNE) 2,455 5.6 -18.2°
Sets 22:58:32 0° 25° (NNE) 3,395 6.2 -18.3°
